This demonstration page uses our WeatherBlox Daily Observations layout. Learn more.

Left ArrowRight Arrow

40.92945, -100.16068

Hourly Observations for May 22, 2022

Temp ( °F °C ) Dew Point ( °F °C ) Humidity (%) Winds ( mph kmh ) Pressure ( in mb ) Visibility ( mi km ) Precip ( " mm )
12:15 am 00:15 Clear 40 4.5 31 -0.6 70 70 Calm 30.38 1029 10 16 0.00 0.00
12:35 am 00:35 Clear 38 3.5 31 -0.8 74 74 Calm 30.39 1029 10 16 0.00 0.00
12:55 am 00:55 Clear 39 3.7 31 -0.8 73 73 Calm 30.39 1029 10 16 0.00 0.00
1:15 am 01:15 Clear 37 2.8 30 -1 76 76 N 3 6 30.40 1029 10 16 0.00 0.00
1:35 am 01:35 Clear 38 3.3 31 -0.6 76 76 NW 3 6 30.40 1029 10 16 0.00 0.00
1:55 am 01:55 Clear 36 2 30 -1 81 81 NNW 7 11 30.41 1030 10 16 0.00 0.00
2:15 am 02:15 Clear 35 1.5 30 -1 84 84 N 5 7 30.41 1030 10 16 0.00 0.00
2:35 am 02:35 Clear 35 1.6 30 -1.1 82 82 Calm 30.40 1030 10 16 0.00 0.00
2:55 am 02:55 Clear 34 1 29 -1.7 82 82 NW 5 7 30.41 1030 10 16 0.00 0.00
3:15 am 03:15 Clear 35 1.5 31 -0.3 88 88 W 3 6 30.41 1030 10 16 0.00 0.00
3:35 am 03:35 Clear 33 0.7 30 -1.3 87 87 WNW 6 9 30.42 1030 10 16 0.00 0.00
3:55 am 03:55 Clear 32 0 29 -1.7 88 88 NW 6 9 30.44 1031 10 16 0.00 0.00
4:15 am 04:15 Clear 32 0 29 -1.7 88 88 WNW 7 11 30.44 1031 10 16 0.00 0.00
4:35 am 04:35 Clear 33 0.3 30 -1.3 89 89 NW 6 9 30.43 1030 10 16 0.00 0.00
4:55 am 04:55 Clear 32 0.2 29 -1.4 89 89 NNW 3 6 30.44 1031 10 16 0.00 0.00
5:15 am 05:15 Clear 34 1 30 -1 87 87 WNW 3 6 30.43 1030 10 16 0.00 0.00
5:35 am 05:35 Clear 34 1.1 31 -0.6 89 89 W 3 6 30.44 1031 10 16 0.00 0.00
5:55 am 05:55 Clear 34 1.3 31 -0.6 87 87 WSW 5 7 30.45 1031 10 16 0.00 0.00
6:15 am 06:15 Clear 34 1.1 31 -0.6 89 89 Calm 30.45 1031 10 16 0.00 0.00
6:35 am 06:35 Sunny 34 1 30 -1.1 86 86 Calm 30.46 1031 10 16 0.00 0.00
6:55 am 06:55 Sunny 34 1.1 30 -1 86 86 Calm 30.48 1032 10 16 0.00 0.00
7:15 am 07:15 Sunny 36 2 31 -0.3 85 85 Calm 30.48 1032 10 16 0.00 0.00
7:35 am 07:35 Sunny 38 3.5 33 0.5 81 81 S 3 6 30.47 1032 10 16 0.00 0.00
7:55 am 07:55 Sunny 41 5 33 0.6 73 73 Calm 30.46 1031 10 16 0.00 0.00
8:15 am 08:15 Sunny 44 6.7 33 0.8 66 66 Calm 30.45 1031 10 16 0.00 0.00
8:35 am 08:35 Sunny 46 7.9 32 0 58 58 Calm 30.44 1031 10 16 0.00 0.00
8:55 am 08:55 Sunny 48 8.9 32 0 54 54 Calm 30.43 1031 10 16 0.00 0.00
9:15 am 09:15 Sunny 50 9.9 31 -0.4 49 49 Calm 30.41 1030 10 16 0.00 0.00
9:35 am 09:35 Sunny 52 11 32 0.2 48 48 Calm 30.40 1030 10 16 0.00 0.00
9:55 am 09:55 Sunny 54 12.2 33 0.6 45 45 Calm 30.39 1029 10 16 0.00 0.00
10:15 am 10:15 Sunny 57 13.8 34 0.9 42 42 SSW 5 7 30.38 1029 7 11 0.00 0.00
10:35 am 10:35 Sunny 58 14.6 33 0.5 38 38 Calm 30.36 1028 10 16 0.00 0.00
10:55 am 10:55 Sunny 59 14.8 32 -0.1 36 36 SW 3 6 30.35 1028 10 16 0.00 0.00
11:15 am 11:15 Sunny 60 15.4 31 -0.8 33 33 S 7 11 30.34 1027 10 16 0.00 0.00
11:35 am 11:35 Sunny 61 15.9 31 -0.7 32 32 SSW 8 13 30.33 1027 10 16 0.00 0.00
11:55 am 11:55 Sunny 61 16.2 31 -0.4 32 32 SE 5 7 30.31 1027 10 16 0.00 0.00
12:15 pm 12:15 Sunny 62 16.8 31 -0.7 31 31 SW 7 11 30.31 1026 10 16 0.00 0.00
12:35 pm 12:35 Sunny 63 17 30 -1.2 29 29 WSW 9 15 30.31 1026 10 16 0.00 0.00
12:55 pm 12:55 Sunny 63 17.1 30 -0.9 30 30 S 6 9 30.30 1026 10 16 0.00 0.00
1:15 pm 13:15 Sunny 63 17.3 30 -1.1 29 29 S 6 9 30.28 1026 10 16 0.00 0.00
1:35 pm 13:35 Sunny 65 18.3 31 -0.3 29 29 S 6 9 30.27 1025 10 16 0.00 0.00
1:55 pm 13:55 Sunny 64 17.7 29 -1.5 27 27 SW 7 11 30.26 1025 10 16 0.00 0.00
2:15 pm 14:15 Sunny 64 17.7 29 -1.9 26 26 Calm 30.25 1024 10 16 0.00 0.00
2:35 pm 14:35 Sunny 64 17.9 30 -1.2 27 27 Calm 30.24 1024 10 16 0.00 0.00
2:55 pm 14:55 Sunny 64 18 31 -0.4 29 29 SSW 7 11 30.22 1023 10 16 0.00 0.00
3:15 pm 15:15 Sunny 65 18.2 31 -0.8 28 28 WSW 7 11 30.22 1023 10 16 0.00 0.00
3:35 pm 15:35 Sunny 64 17.8 30 -1.3 27 27 W 3 6 30.21 1023 10 16 0.00 0.00
3:55 pm 15:55 Sunny 65 18.1 31 -0.5 29 29 SSW 8 13 30.20 1023 10 16 0.00 0.00
4:15 pm 16:15 Sunny 65 18.5 32 0.1 29 29 SSE 6 9 30.19 1022 10 16 0.00 0.00
4:35 pm 16:35 Sunny 65 18.2 31 -0.3 29 29 S 7 11 30.19 1022 10 16 0.00 0.00
4:55 pm 16:55 Sunny 65 18.2 33 0.3 30 30 SSE 8 13 30.18 1022 10 16 0.00 0.00
5:15 pm 17:15 Sunny 65 18.2 32 0 29 29 SE 9 15 30.17 1022 10 16 0.00 0.00
5:35 pm 17:35 Sunny 65 18.1 32 -0.2 29 29 S 7 11 30.17 1022 10 16 0.00 0.00
5:55 pm 17:55 Sunny 65 18.3 32 0.2 30 30 S 7 11 30.17 1022 10 16 0.00 0.00
6:15 pm 18:15 Sunny 65 18.3 32 -0.2 29 29 SSE 9 15 30.16 1021 10 16 0.00 0.00
6:35 pm 18:35 Sunny 64 17.8 32 -0.1 30 30 SE 9 15 30.16 1021 10 16 0.00 0.00
6:55 pm 18:55 Sunny 64 17.6 30 -0.9 29 29 SSE 9 15 30.15 1021 10 16 0.00 0.00
7:15 pm 19:15 Sunny 64 17.5 29 -1.5 28 28 SE 10 17 30.15 1021 10 16 0.00 0.00
7:35 pm 19:35 Sunny 63 17.2 31 -0.8 30 30 S 9 15 30.16 1021 10 16 0.00 0.00
7:55 pm 19:55 Sunny 62 16.9 30 -0.9 30 30 SSE 12 19 30.16 1021 10 16 0.00 0.00
8:15 pm 20:15 Sunny 62 16.8 30 -1.2 29 29 SE 9 15 30.17 1022 10 16 0.00 0.00
8:35 pm 20:35 Sunny 62 16.6 30 -1.1 30 30 SE 9 15 30.16 1021 10 16 0.00 0.00
8:55 pm 20:55 Sunny 61 16.1 31 -0.3 33 33 SE 7 11 30.18 1022 10 16 0.00 0.00
9:15 pm 21:15 Partly Cloudy 61 16 31 -0.8 32 32 SSE 8 13 30.19 1022 10 16 0.00 0.00
9:35 pm 21:35 Partly Cloudy 59 15.1 32 0 36 36 SSE 7 11 30.19 1023 10 16 0.00 0.00
9:55 pm 21:55 Clear 58 14.7 33 0.7 39 39 SSE 6 9 30.21 1023 10 16 0.00 0.00
10:15 pm 22:15 Clear 58 14.7 33 0.6 38 38 S 6 9 30.22 1023 10 16 0.00 0.00
10:35 pm 22:35 Clear 58 14.6 32 0.2 38 38 SE 7 11 30.23 1024 10 16 0.00 0.00
10:55 pm 22:55 Clear 59 14.8 32 0.2 37 37 S 16 26 30.24 1024 10 16 0.00 0.00
11:15 pm 23:15 Clear 58 14.7 33 0.5 38 38 S 10 17 30.24 1024 10 16 0.00 0.00
11:35 pm 23:35 Clear 60 15.4 32 -0.2 35 35 S 6 9 30.24 1024 10 16 0.00 0.00
11:55 pm 23:55 Clear 58 14.4 33 0.7 39 39 SSE 7 11 30.24 1024 10 16 0.00 0.00

Powered by AerisWeather